Погода в Октябрьском

Россия / Кабардино-Балкарская Республика     43°53′31″N   43°09′11″E
темп.,
°C
ветер,
м/с
пор.,
м/с
влажн.,
%
обл.,
%
осадки,
мм/ч
давл.,
гПа
погр.,
м
17 апреля, сб
сб1700:00+11з1185100 0.0 101810
03:00+11ю1181100 0.0 101810
06:00+10сз2282100 0.0 101832
09:00+13сз6872100 0.0 1020736
12:00+11ссз5780100 0.1 1022822
15:00+11ссз3477100 0.1 1022778
18:00+9ссз3382100 0.1 1023394
21:00+8ссв2290100 0.1 1023258
18 апреля, вс
вс1800:00+8вюв1189100 0.0 1022141
03:00+8вюв2492100 0.0 1021267
06:00+8юв3693100 0.0 1021343
09:00+10юв4686100 0.0 1020500
12:00+13вюв4579100 0.8 1017493
15:00+14вюв3474100 1.4 1017716
18:00+13юв3582100 2.4 1019465
21:00+11юв2598100 2.7 1018138
19 апреля, пн
пн1900:00+11ююв2497100 0.0 1018258
03:00+11ююв2393100 0.0 101758
06:00+12юв2280100 0.0 101633
09:00+16всв116364 0.0 1016339
12:00+20всв445672 0.0 10151092
15:00+21вюв665285 0.0 10131575
18:00+18вюв4870100 0.6 1013421
21:00+15юв31076100 1.1 1013293
20 апреля, вт
вт2000:00+13юв24846 0.0 101179
03:00+12ююв3381100 0.0 100866
06:00+13юв3577100 0.0 1006122
09:00+16юв3567100 0.0 1005225
12:00+20в5656100 0.0 1004428
15:00+22ссз455127 0.0 1004707
18:00+15сз9128299 0.3 1009898
21:00+11зсз61067100 0.9 1014750
21 апреля, ср
ср2100:00+10с0171100 0.1 1016361
03:00+10вюв3678100 0.4 1017393
06:00+9вюв3883100 0.2 1018519
09:00+9в4990100 2.9 1019584
12:00+9в4887100 0.3 1021577
15:00+9в4590100 0.5 1021498
18:00+8в4695100 0.2 1022393
21:00+8в2594100 0.3 1023292